[[{"header":{"parameterUnit":"m.s-1","parameterCategory":1,"la1":30.2991,"la2":30.254,"lo1":-89.0895,"lo2":-89.0444,"dy":0.0017,"dx":0.0017,"nx":28,"ny":28,"refTime":"2024-07-10T09:00:00:Z","depth":0,"parameterNumber":2,"parameterNumberName":"U-component_of_WINDS"},"data":[0,0,0,0,0,0,0,0,0,0,0,0,0,0,0,0,0,0,0,0,0,0,0,0,0,0,0,0,0,0,0,0,0,0,0,0,0,0,0,0,0,0,0,0,0,0,0,0,0,0,0,0,0,0,0,0,0,0,0.2482,0.2482,0,0.2528,0.2529,0.2529,0.2482,0.248,0.2478,0.2477,0.2524,0.2527,0.253,0,0,0,0,0,0,0,0,0,0,0,0,0,0.2353,0.2356,0.2482,0.2482,0.2483,0.2528,0.2529,0.2529,0.2482,0.248,0.2478,0.2476,0.2523,0.2527,0.2531,0,0,0,0,0,0,0,0,0,0,0,0,0,0.2405,0.2357,0.2482,0.2465,0.2464,0.2528,0.2529,0.253,0.2483,0.248,0.2477,0.2475,0.2522,0.2527,0.2531,0.2614,0,0,0.2545,0.2547,0,0,0,0,0,0,0,0,0.2403,0.241,0.2467,0.2466,0.2465,0.2496,0.2501,0.2558,0.2484,0.2476,0.2477,0.2473,0.2517,0.2522,0.2537,0.2616,0.2618,0.2545,0.2548,0.255,0.2551,0,0,0,0,0,0,0,0.2399,0.2408,0.25,0.2468,0.2467,0.2455,0.246,0.2512,0.2511,0.2476,0.2473,0.2479,0.2516,0.2533,0.2538,0.2619,0.2545,0.2549,0.2552,0.2554,0.2771,0.2774,0,0,0,0,0,0,0.2397,0.2405,0.2499,0.2501,0.2426,0.246,0.2465,0.2489,0.2511,0.2511,0.2481,0.2477,0.2526,0.2532,0.2539,0.264,0.255,0.2554,0.2557,0.2768,0.2772,0.2776,0,0,0,0,0,0,0.2395,0.2406,0.2497,0.2453,0.2463,0.2465,0.2493,0.2492,0.2508,0.2515,0.2514,0.2498,0.2524,0.2533,0.2596,0.2641,0.2556,0.256,0.2765,0.277,0.2774,0.2841,0,0,0,0,0,0,0.2391,0.2405,0.2437,0.2454,0.2466,0.2553,0.2496,0.2494,0.2516,0.251,0.253,0.2531,0.2523,0.259,0.2601,0.2645,0.2564,0.2761,0.2767,0.2772,0.2835,0.2847,0.2858,0,0,0,0,0,0.2387,0.2453,0.2438,0.245,0.2505,0.2556,0.2563,0.2552,0.2519,0.2551,0.2556,0.253,0.2634,0.2597,0.2609,0.2655,0.2758,0.2765,0.2772,0.2829,0.2845,0.2858,0,0,0,0,0,0,0.2441,0.2455,0.2439,0.2513,0.2533,0.2548,0.2587,0.2568,0.2599,0.2592,0.2577,0.2583,0.265,0.2659,0.2617,0.2738,0.2691,0.27,0.273,0.2745,0.2756,0.2754,0.2567,0,0,0,0,0,0.2461,0.2501,0.2511,0.2575,0.2587,0.2586,0.2607,0.2597,0.2618,0.2627,0.2636,0.2657,0.2695,0.272,0.2755,0.2835,0.284,0.2873,0.2885,0.2894,0.2903,0.2949,0.2965,0.2798,0.2798,0.2798,0,0,0.2504,0.2517,0.2543,0.2587,0.2602,0.2644,0.2593,0.2639,0.2671,0.2634,0.2695,0.2703,0.2726,0.2799,0.2831,0.2808,0.295,0.2903,0.2911,0.2915,0.2958,0.2974,0.2988,0.2803,0.2802,0.2802,0,0,0.2604,0.2617,0.2673,0.2689,0.2713,0.2712,0.2725,0.2743,0.2747,0.2808,0.2781,0.2819,0.2883,0.2901,0.2919,0.3028,0.3007,0.3039,0.3101,0.3146,0.3159,0.317,0.3212,0.3226,0.3048,0.3048,0.3048,0,0.2655,0.2718,0.2704,0.2754,0.2775,0.2743,0.28,0.2816,0.285,0.2866,0.2839,0.292,0.2933,0.3012,0.3038,0.3053,0.3069,0.3038,0.3158,0.3169,0.318,0.3219,0.3235,0.3052,0.3052,0.3052,0.3051,0,0.278,0.2824,0.2866,0.29,0.2926,0.2979,0.2974,0.3002,0.299,0.2992,0.3056,0.307,0.3109,0.3126,0.3114,0.3203,0.3188,0.316,0.3112,0.32,0.3237,0.3252,0.3058,0.3057,0.3056,0.3055,0,0,0.2916,0.2943,0.2959,0.2975,0.2999,0.3033,0.3085,0.3123,0.3148,0.3172,0.3217,0.3272,0.3247,0.3267,0.3257,0.3296,0.3385,0.3263,0.3264,0.3288,0.3487,0.351,0.3528,0.337,0.3373,0.3375,0.3486,0,0.3019,0.311,0.31,0.3187,0.3228,0.3199,0.3245,0.3265,0.3268,0.3305,0.3308,0.3349,0.3311,0.3323,0.336,0.3366,0.3425,0.3358,0.3413,0.3415,0.3411,0.3546,0.357,0.3675,0.35,0.3502,0.3504,0,0.3151,0.3181,0.3273,0.3292,0.3309,0.3351,0.3386,0.342,0.3443,0.3443,0.3466,0.345,0.3504,0.3454,0.3529,0.3483,0.3505,0.3511,0.3515,0.3522,0.3467,0.3559,0.3707,0.3724,0.3526,0.3524,0.3523,0,0.3244,0.3308,0.3371,0.3385,0.3409,0.3439,0.3451,0.3471,0.3495,0.3525,0.3541,0.3577,0.3597,0.3626,0.3621,0.3584,0.3698,0.3647,0.3701,0.3702,0.3728,0.3727,0.3884,0.3738,0.3738,0.3738,0.3737,0,0.3362,0.3419,0.3414,0.3453,0.3517,0.3506,0.357,0.3577,0.3596,0.3637,0.3613,0.3652,0.3641,0.368,0.3676,0.374,0.3749,0.3752,0.375,0.3755,0.3755,0.3771,0.3765,0.3742,0.3741,0.374,0.3739,0,0.3478,0.3476,0.3544,0.3561,0.3567,0.3614,0.3629,0.3667,0.3668,0.3721,0.3732,0.3735,0.378,0.3777,0.3827,0.3824,0.3905,0.3893,0.3897,0.3896,0.3951,0.3947,0.4127,0.4151,0.3986,0.3988,0.3989,0,0.3554,0.3598,0.362,0.3646,0.366,0.3702,0.3727,0.3717,0.3744,0.3774,0.3809,0.3851,0.3885,0.3958,0.3966,0.4005,0.3996,0.4056,0.4002,0.4006,0.4,0.3999,0.4004,0.4067,0.4069,0.4071,0.4072,0,0.369,0.3688,0.3724,0.3762,0.3792,0.382,0.3846,0.3869,0.3862,0.3894,0.394,0.3966,0.4018,0.4062,0.4099,0.4111,0.4092,0.4089,0.4104,0.4111,0.4112,0.4115,0.3929,0.4085,0.4084,0.4083,0.4082,0.4082,0.3791,0.3829,0.3852,0.3894,0.3913,0.3938,0.3975,0.3982,0.402,0.4062,0.4053,0.4106,0.4129,0.4178,0.4193,0.4235,0.4214,0.4235,0.4241,0.4247,0.4255,0.4104,0.4241,0.4241,0.4241,0.424,0.424,0,0.3928,0.3941,0.398,0.4018,0.4052,0.4029,0.4057,0.4087,0.4134,0.4157,0.4191,0.4245,0.4288,0.4299,0.434,0.4371,0.4363,0.4383,0.4382,0.4385,0.427,0.4254,0.4388,0.4388,0.4388,0.4388,0.4388,0.4388,0.4004,0.4069,0.4069,0.4144,0.4157,0.4208,0.4227,0.425,0.4269,0.4331,0.4366,0.4373,0.4392,0.4434,0.4473,0.4475,0.4493,0.4516,0.4515,0.4408,0.4393,0.4379,0.4364,0.452,0.452,0.4628,0.4629,0.4629]},{"header":{"parameterUnit":"m.s-1","parameterCategory":1,"la1":30.2991,"la2":30.254,"lo1":-89.0895,"lo2":-89.0444,"dy":0.0017,"dx":0.0017,"nx":28,"ny":28,"refTime":"2024-07-10T09:00:00:Z","depth":0,"parameterNumber":3,"parameterNumberName":"V-component_of_WINDS"},"data":[0,0,0,0,0,0,0,0,0,0,0,0,0,0,0,0,0,0,0,0,0,0,0,0,0,0,0,0,0,0,0,0,0,0,0,0,0,0,0,0,0,0,0,0,0,0,0,0,0,0,0,0,0,0,0,0,0,0,-1.0981,-1.0981,0,-1.0929,-1.0929,-1.0928,-1.0917,-1.0918,-1.0918,-1.0918,-1.0864,-1.0862,-1.086,0,0,0,0,0,0,0,0,0,0,0,0,0,-1.1072,-1.1071,-1.0981,-1.0981,-1.098,-1.0929,-1.0929,-1.0928,-1.0917,-1.0918,-1.0918,-1.0919,-1.0865,-1.0862,-1.086,0,0,0,0,0,0,0,0,0,0,0,0,0,-1.1028,-1.107,-1.0982,-1.0969,-1.0967,-1.0929,-1.0929,-1.0928,-1.0917,-1.0918,-1.0918,-1.0919,-1.0865,-1.0863,-1.086,-1.0831,0,0,-1.0852,-1.085,0,0,0,0,0,0,0,0,-1.103,-1.1024,-1.0971,-1.097,-1.0968,-1.093,-1.0941,-1.0895,-1.0917,-1.0936,-1.0918,-1.0919,-1.0886,-1.0881,-1.087,-1.0829,-1.0826,-1.0851,-1.085,-1.0849,-1.0848,0,0,0,0,0,0,0,-1.1033,-1.1027,-1.0961,-1.097,-1.0968,-1.0966,-1.096,-1.0932,-1.0908,-1.0934,-1.0933,-1.0927,-1.0885,-1.0873,-1.0869,-1.0826,-1.0851,-1.0849,-1.0847,-1.0846,-1.076,-1.0759,0,0,0,0,0,0,-1.1039,-1.1029,-1.0962,-1.0959,-1.1001,-1.0964,-1.0957,-1.0942,-1.0908,-1.0904,-1.0927,-1.0927,-1.0877,-1.0872,-1.0867,-1.0832,-1.0849,-1.0846,-1.0844,-1.0761,-1.076,-1.0759,0,0,0,0,0,0,-1.1041,-1.1033,-1.0964,-1.0994,-1.0985,-1.0961,-1.0944,-1.094,-1.0928,-1.0903,-1.0898,-1.0919,-1.0877,-1.0871,-1.0841,-1.083,-1.0845,-1.0842,-1.0761,-1.076,-1.0759,-1.0762,0,0,0,0,0,0,-1.1043,-1.1034,-1.1022,-1.0994,-1.0984,-1.0939,-1.0943,-1.0939,-1.0924,-1.0923,-1.0894,-1.089,-1.0877,-1.0845,-1.0838,-1.0827,-1.084,-1.0762,-1.0761,-1.076,-1.0763,-1.0761,-1.076,0,0,0,0,0,-1.1047,-1.1024,-1.1022,-1.1014,-1.0969,-1.0938,-1.0933,-1.0919,-1.0923,-1.0912,-1.0895,-1.0891,-1.0832,-1.0842,-1.0834,-1.0822,-1.0763,-1.0761,-1.076,-1.0763,-1.0761,-1.076,0,0,0,0,0,0,-1.1051,-1.102,-1.1017,-1.0985,-1.0965,-1.0937,-1.0922,-1.0917,-1.0894,-1.0895,-1.0879,-1.0872,-1.0843,-1.0829,-1.084,-1.0793,-1.0798,-1.0795,-1.0803,-1.0801,-1.08,-1.0804,-1.0838,0,0,0,0,0,-1.1049,-1.1027,-1.1001,-1.0975,-1.0965,-1.0945,-1.0932,-1.0923,-1.0901,-1.0892,-1.0874,-1.0852,-1.0829,-1.0814,-1.0792,-1.0761,-1.0755,-1.0748,-1.0747,-1.0746,-1.0744,-1.0728,-1.0725,-1.0754,-1.0754,-1.0754,0,0,-1.1043,-1.1024,-1.101,-1.0976,-1.0959,-1.0937,-1.0938,-1.0914,-1.0898,-1.0888,-1.0859,-1.0845,-1.082,-1.079,-1.0776,-1.0778,-1.0734,-1.0744,-1.0743,-1.0741,-1.0726,-1.0723,-1.0721,-1.0753,-1.0753,-1.0753,0,0,-1.1022,-1.1004,-1.0982,-1.0965,-1.094,-1.0927,-1.0922,-1.0895,-1.0886,-1.0856,-1.0849,-1.083,-1.079,-1.0773,-1.0759,-1.0734,-1.0729,-1.0727,-1.0719,-1.0704,-1.0701,-1.0699,-1.0691,-1.0688,-1.0724,-1.0724,-1.0724,0,-1.1018,-1.0984,-1.097,-1.0948,-1.0933,-1.0924,-1.0902,-1.0886,-1.0855,-1.0845,-1.0847,-1.0799,-1.0781,-1.0748,-1.0742,-1.073,-1.0724,-1.073,-1.0703,-1.0701,-1.0698,-1.069,-1.0687,-1.0724,-1.0724,-1.0724,-1.0724,0,-1.0981,-1.0958,-1.0943,-1.0914,-1.0898,-1.0875,-1.0858,-1.0843,-1.0836,-1.0824,-1.0795,-1.0774,-1.0747,-1.0739,-1.0731,-1.0705,-1.0707,-1.0706,-1.0711,-1.0696,-1.0688,-1.0685,-1.0724,-1.0724,-1.0724,-1.0724,0,0,-1.096,-1.0925,-1.092,-1.0907,-1.088,-1.0862,-1.0839,-1.0814,-1.0802,-1.0781,-1.0762,-1.073,-1.073,-1.0714,-1.0705,-1.0691,-1.0674,-1.0693,-1.0692,-1.0691,-1.0645,-1.0646,-1.0642,-1.0671,-1.067,-1.067,-1.0647,0,-1.0936,-1.0896,-1.0884,-1.085,-1.0829,-1.0821,-1.0802,-1.0783,-1.0771,-1.0752,-1.0738,-1.0716,-1.0717,-1.0708,-1.0694,-1.0679,-1.0665,-1.068,-1.0654,-1.0653,-1.066,-1.0638,-1.0638,-1.0618,-1.0644,-1.0643,-1.0643,0,-1.0902,-1.0882,-1.0846,-1.0823,-1.0814,-1.0797,-1.0773,-1.0755,-1.0734,-1.0726,-1.071,-1.0702,-1.0679,-1.0685,-1.0653,-1.0664,-1.0653,-1.0644,-1.0643,-1.064,-1.0647,-1.0635,-1.0611,-1.0608,-1.0638,-1.0638,-1.0638,0,-1.0892,-1.0855,-1.083,-1.0819,-1.0791,-1.0779,-1.0767,-1.0747,-1.0733,-1.0713,-1.0704,-1.0681,-1.0668,-1.0651,-1.0637,-1.0643,-1.0607,-1.0612,-1.0601,-1.0601,-1.0593,-1.0594,-1.0568,-1.0585,-1.0585,-1.0585,-1.0585,0,-1.0866,-1.0845,-1.0825,-1.0809,-1.0786,-1.0772,-1.0749,-1.0737,-1.0719,-1.0701,-1.0693,-1.0676,-1.0659,-1.064,-1.063,-1.0606,-1.06,-1.0593,-1.0591,-1.0594,-1.0595,-1.0586,-1.0588,-1.0584,-1.0585,-1.0585,-1.0585,0,-1.0851,-1.0836,-1.0808,-1.0784,-1.0778,-1.0762,-1.0741,-1.0726,-1.0714,-1.0692,-1.0686,-1.0667,-1.0645,-1.063,-1.0601,-1.0594,-1.0568,-1.0565,-1.0575,-1.0574,-1.0564,-1.0565,-1.0531,-1.0526,-1.0547,-1.0546,-1.0546,0,-1.0835,-1.0819,-1.0794,-1.0782,-1.077,-1.075,-1.0736,-1.0723,-1.0709,-1.0685,-1.0673,-1.065,-1.0631,-1.0596,-1.058,-1.0558,-1.0555,-1.0545,-1.0552,-1.0556,-1.0556,-1.0557,-1.0556,-1.0544,-1.0543,-1.0543,-1.0543,0,-1.0811,-1.0805,-1.0785,-1.0764,-1.0748,-1.0731,-1.0713,-1.0703,-1.0687,-1.0672,-1.0649,-1.0635,-1.0606,-1.0584,-1.0561,-1.0548,-1.0543,-1.0541,-1.0538,-1.0541,-1.0548,-1.0545,-1.0573,-1.0542,-1.0542,-1.0542,-1.0542,-1.0542,-1.0795,-1.0781,-1.0762,-1.0741,-1.0726,-1.071,-1.0695,-1.0682,-1.0663,-1.0639,-1.0632,-1.0609,-1.059,-1.0559,-1.0546,-1.0528,-1.0529,-1.0523,-1.0522,-1.0521,-1.0521,-1.0551,-1.0524,-1.0524,-1.0524,-1.0524,-1.0524,0,-1.077,-1.0758,-1.0739,-1.0715,-1.0699,-1.0696,-1.0677,-1.0664,-1.0644,-1.0626,-1.0608,-1.0583,-1.0562,-1.0545,-1.0523,-1.0512,-1.0509,-1.0507,-1.0508,-1.0505,-1.0521,-1.0527,-1.051,-1.051,-1.051,-1.051,-1.051,-1.051,-1.0756,-1.0732,-1.0724,-1.0693,-1.0681,-1.0659,-1.0648,-1.0634,-1.062,-1.0592,-1.0575,-1.0564,-1.0547,-1.0524,-1.0505,-1.05,-1.0493,-1.0491,-1.0486,-1.0502,-1.0504,-1.0505,-1.051,-1.049,-1.049,-1.0471,-1.0471,-1.0471]}]]